Weather History for Kendall, FL

Change the Weather History Date:

Thursday, November 14, 2013

  Actual Average Record
Temperature  
Mean Temperature 76 °F -  
Max Temperature 80 °F 82 °F 87 °F (1992)
Min Temperature 71 °F 66 °F 56 °F (1991)
Cooling Degree Days 10    
Growing Degree Days 26 (Base 50)    
Moisture  
Dew Point 60 °F    
Average Humidity 62    
Maximum Humidity 68    
Minimum Humidity 54    
Precipitation  
Precipitation 0.00 in - - ()
Sea Level Pressure  
Sea Level Pressure 30.16 in    
Wind  
Wind Speed 16 mph (ENE)    
Max Wind Speed 23 mph    
Max Gust Speed 31 mph    
Visibility 10 miles    
Events      
Averages and records for this station are not official NWS values.
T = Trace of Precipitation, MM = Missing Value Source: NWS Daily Summary

Daily Weather History Graph

Daily Weather History Graph

Search for Another Location

Airport:

Trip Planner

Search our weather history database for the weather conditions in past years. The results will help you decide how hot, cold, wet, or windy it might be!

Date:

Astronomy

Nov. 14, 2013 Rise Set
Actual Time 6:38 AM EST 5:33 PM EST
Civil Twilight 6:14 AM EST 5:57 PM EST
Nautical Twilight 5:46 AM EST 6:25 PM EST
Astronomical Twilight 5:19 AM EST 6:52 PM EST
Moon 3:40 PM EST (11/14) 3:48 AM EST (11/14)
Length of Visible Light 11h 42m
Length of Day
10h 54m
Waxing Gibbous, 91% of the Moon is Illuminated
Nov 14
Waxing Gibbous
Nov 17
Full
Nov 25
Last Quarter
Dec 2
New
Dec 9
First Quarter

Hourly Weather History & Observations

Time (EST) Temp. Heat Index Dew Point Humidity Pressure Visibility Wind Dir Wind Speed Gust Speed Precip Events Conditions
12:53 AM 72.0 °F - 59.0 °F 64% 30.16 in 10.0 mi NE 18.4 mph - N/A   Overcast
1:53 AM 71.1 °F - 57.9 °F 63% 30.15 in 10.0 mi ENE 16.1 mph 25.3 mph N/A   Overcast
2:53 AM 71.1 °F - 57.9 °F 63% 30.14 in 10.0 mi ENE 12.7 mph - N/A   Overcast
3:53 AM 72.0 °F - 59.0 °F 64% 30.14 in 10.0 mi East 15.0 mph - N/A   Overcast
4:53 AM 71.1 °F - 60.1 °F 68% 30.14 in 10.0 mi ENE 12.7 mph - 0.00 in   Overcast
5:53 AM 71.1 °F - 57.9 °F 63% 30.15 in 10.0 mi ENE 16.1 mph - N/A   Overcast
6:53 AM 71.1 °F - 55.9 °F 59% 30.17 in 10.0 mi ENE 13.8 mph - N/A   Clear
7:53 AM 73.0 °F - 57.9 °F 59% 30.20 in 10.0 mi ENE 12.7 mph - N/A   Overcast
8:53 AM 75.0 °F - 61.0 °F 62% 30.21 in 10.0 mi ENE 18.4 mph 26.5 mph N/A   Mostly Cloudy
9:53 AM 77.0 °F - 60.1 °F 56% 30.22 in 10.0 mi ENE 23.0 mph - N/A   Partly Cloudy
10:53 AM 78.1 °F - 61.0 °F 56% 30.21 in 10.0 mi ENE 18.4 mph 31.1 mph N/A   Mostly Cloudy
11:53 AM 80.1 °F 81.2 °F 62.1 °F 54% 30.19 in 10.0 mi East 21.9 mph 28.8 mph N/A   Mostly Cloudy
12:53 PM 77.0 °F - 61.0 °F 58% 30.17 in 10.0 mi ENE 18.4 mph - N/A   Overcast
1:53 PM 75.9 °F - 61.0 °F 60% 30.15 in 10.0 mi ENE 20.7 mph 29.9 mph 0.00 in   Mostly Cloudy
2:53 PM 75.9 °F - 59.0 °F 56% 30.14 in 10.0 mi East 18.4 mph 28.8 mph N/A   Mostly Cloudy
3:53 PM 75.0 °F - 57.9 °F 55% 30.14 in 10.0 mi East 18.4 mph - N/A   Mostly Cloudy
4:53 PM 75.0 °F - 59.0 °F 57% 30.14 in 10.0 mi East 15.0 mph - N/A   Mostly Cloudy
5:53 PM 73.0 °F - 60.1 °F 64% 30.15 in 10.0 mi ENE 11.5 mph - N/A   Clear
6:53 PM 72.0 °F - 61.0 °F 68% 30.15 in 10.0 mi East 11.5 mph - N/A   Clear
7:53 PM 73.0 °F - 60.1 °F 64% 30.16 in 10.0 mi East 12.7 mph - N/A   Partly Cloudy
8:53 PM 73.9 °F - 61.0 °F 64% 30.16 in 10.0 mi East 10.4 mph - N/A   Mostly Cloudy
9:53 PM 73.9 °F - 62.1 °F 66% 30.16 in 10.0 mi East 10.4 mph - N/A   Overcast
10:53 PM 73.9 °F - 62.1 °F 66% 30.15 in 10.0 mi East 11.5 mph - N/A   Overcast
11:53 PM 73.9 °F - 63.0 °F 68% 30.13 in 10.0 mi East 11.5 mph - N/A   Overcast